Find Starlink 34795

NORAD ID: 65684 Int'l Des: 2025-212 Owner: SPXS Country: US Constellation: starlink operational
LEOCIRCULAR

当前视图

正在加载3D地球...

About Starlink 34795

Starlink 34795 (NORAD 65684) is a starlink constellation satellite (v2 mini) launched Sep 21, 2025 by SPXS of US. It operates in LEO, CIRCULAR orbit with a mass of 575.00 kg.

即将过境

Passes for default location (London). Set your location on the main map for personalized predictions.

高度历史

Loading altitude history...

两行轨道根数

1 65684U 25212J 26263.97747717 .00027942 00000-0 83406-3 0 9997
2 65684 53.1570 155.7032 0001246 92.7151 267.3995 15.34437474 57132
Epoch: Sep 20, 2026 • Age: 6 hours

当前状态

高度 475.7 km
远地点 / 近地点 N/A
速度 7.63 km/s
星下点 -38.18°S, 36.14°E
发射日期 Sep 21, 2025
运行时间 0.9 years
类型 internet

技术详情

分类 Payload
质量 575.00 kg
干质量 530.00 kg
长度 0.30 m
跨度 29.00 m
形状 ? Box + pan
制造商 SPXS
平台类型 Starlink V2MO
阶段状态 In Orbit
所有者/国家 SPXS/US

Most Searched